Tracking 31027 objects as of 19-Jul-2025
HD Live streaming from Space Station
objects crossing your sky now

STARLINK-4179

Track STARLINK-4179 now!
10-day predictions
STARLINK-4179 is classified as:


NORAD ID: 53275
Int'l Code: 2022-086AK
Perigee: 545.8 km
Apogee: 548.0 km
Inclination: 53.2 °
Period: 95.4 minutes
Semi major axis: 6917 km
RCS: Unknown
Launch date: July 24, 2022
Source: United States (US)
Launch site: AIR FORCE EASTERN TEST RANGE (AFETR)
Your satellite tracking list
COSMOS 830
Track 1 satellite(s)




NASA's NSSDC Master Catalog

Two Line Element Set (TLE):
1 53275U 22086AK  25199.59973292  .00000701  00000-0  62136-4 0  9992
2 53275  53.2173 154.9934 0001560  77.3813 282.7353 15.08841428165857
Source of the keplerian elements: AFSPC